Regional Weather Roundup
Issued by NWS Mt. Holly, NJ

Home | Current Version | Previous Version | Text Only | Print | Product List | Glossary On
Versions: 1 2 3 4 5 6 7 8 9 10 11 12 13 14 15 16 17 18 19 20 21 22 23 24 25 26 27 28 29 30 31 32 33 34 35 36 37 38 39 40 41 42 43 44 45 46 47 48 49 50
000
ASUS41 KPHI 281310
RWRPHI

REGIONAL WEATHER ROUNDUP
NATIONAL WEATHER SERVICE MOUNT HOLLY NJ
900 AM EDT THU AUG 28 2014

NOTE:  "FAIR" INDICATES FEW OR NO CLOUDS BELOW 12,000 FEET WITH NO
SIGNIFICANT WEATHER AND/OR OBSTRUCTIONS TO VISIBILITY.

 * = STATION DOES NOT REPORT PRECIPITATION (E.G. RAIN, SNOW, ETC.)
        OR FOG.

NJZ015>026-281400-
SOUTHERN NEW JERSEY

CITY           SKY/WX    TMP DP  RH WIND       PRES   REMARKS
POMONA         SUNNY     73  58  59 N14       29.91R
RIO GRANDE*    MOSUNNY   75  61  60 N9        29.93R
MILLVILLE      SUNNY     75  59  57 N10       29.93R
WRIGHTSTOWN    SUNNY     71  56  59 N12G22    29.90R
MOUNT HOLLY    SUNNY     72  57  59 N9G20     29.93R
TRENTON        SUNNY     70  55  59 N9G18     29.94R

$$
NJZ001>014-281400-
NORTHERN NEW JERSEY

CITY           SKY/WX    TMP DP  RH WIND       PRES   REMARKS
SUSSEX         PTSUNNY   69  56  62 VRB5      29.95S
ANDOVER*         N/A     66  55  67 N6        29.97R
MORRISTOWN     SUNNY     68  55  64 N8G21     29.94R
NEWARK         MOSUNNY   72  55  55 NW16      29.92R
TETERBORO      SUNNY     71  55  56 N8        29.90S
CALDWELL       SUNNY     69  54  58 VRB7      29.93S
SOMERVILLE     SUNNY     70  54  56 NW10      29.93R
ALLAIRE*       SUNNY     72  54  53 NW13G18   29.92R
TOMS RIVER*    SUNNY     72  55  56 NW15      29.91R

$$
PAZ043-044-047-054-055-060>062-066>071-281400-
EASTERN PENNSYLVANIA

CITY           SKY/WX    TMP DP  RH WIND       PRES   REMARKS
PHILADELPHIA   MOSUNNY   72  55  55 N15       29.95R
NORTH PHILA    SUNNY     73  55  53 N13       29.96R
BLUE BELL      SUNNY     70  55  60 NW5       29.95R
DOYLESTOWN     SUNNY     69  56  62 N9        29.95R
QUAKERTOWN*    SUNNY     66  55  68 MISG      29.98R
POTTSTOWN      SUNNY     68  55  63 N10       29.98R
LANCASTER      SUNNY     68  56  65 N14       29.99R
COATESVILLE    SUNNY     68  63  83 N14       29.99R
READING        SUNNY     69  56  62 N9        29.98R
ALLENTOWN      SUNNY     67  53  61 NW12      29.97S
MOUNT POCONO   MOSUNNY   60  50  69 NW14G22   30.00R
HAZLETON       CLOUDY    59  54  82 NW5       30.06R
WILKES BARRE   MOSUNNY   62  51  67 N10G22    30.02R

$$
DEZALL-MDZ008-012-015-019-020-281400-
DELAWARE AND EASTERN MARYLAND

CITY           SKY/WX    TMP DP  RH WIND       PRES   REMARKS
WILMINGTON     SUNNY     73  58  59 N13       29.97R
DOVER          SUNNY     74  64  70 NW14      29.93R
GEORGETOWN     SUNNY     77  67  71 VRB7      29.94R
EASTON         MOSUNNY   77  66  69 N9        29.99R
PATUXENT       PTSUNNY   78  69  73 N10       29.95R
OCEAN CITY     SUNNY     78  69  73 N10       29.91R
WALLOPS ISLAND SUNNY     78  70  76 N12       29.92R
CAMBRIDGE      PTSUNNY   77  63  61 N9G16     29.94S
SALISBURY      SUNNY     78  68  71 N10       29.93R

$$
PAZ001-021-NYZ056-072-MDZ011-DCZ001-281400-
OTHER NEARBY LOCATIONS

CITY           SKY/WX    TMP DP  RH WIND       PRES   REMARKS
HARRISBURG     MOSUNNY   71  57  61 NW14      30.00R
STATE COLLEGE  MOSUNNY   64  55  72 NW9       30.07R
WILLIAMSPORT   PTSUNNY   68  51  54 N9        30.01S
BINGHAMTON     PTSUNNY   59  54  82 NW6       30.02S
NEW YORK CITY  SUNNY     70  54  56 VRB6      29.94R
BALTIMORE      MOSUNNY   75  62  64 N10       29.98R
WASHINGTON DC  MOSUNNY   79  65  62 N14       29.99R

$$


USA.gov is the U.S. government's official web portal to all federal, state and local government web resources and services.